Location: Baia Mare
(47.6567°N, 23.5850°E)
Time: 09:25:44

ISS - Pass Details

Date: 09 March 2018
Orbit: 403 x 406 km, 51.6° (Epoch: 23 March)

Event Time Altitude Azimuth Distance (km) Brightness Sun altitude
Exits shadow 05:52:12 14° 294° (WNW) 1,255 -1.9 -10.8°
Maximum altitude 05:54:46 39° 1° (N) 627 -2.8 -10.3°
Drops below altitude 10° 05:57:53 10° 73° (ENE) 1,466 0.5 -9.8°
Sets 06:00:03 0° 81° (E) 2,325 2.3 -9.5°
